Location: Cucq
(50.4773°N, 1.6202°E)
Time: 05:33:36
(UTC+00:00)

ARIANE 5 R/B - Pass Details

Date: 07 August 2020
Orbit: 749 x 794 km, 98.6° (Epoch: 19 September)

Event Time Altitude Azimuth Distance (km) Brightness Sun altitude
Rises 02:06:01 0° 21° (NNE) 3,296 7.4 -17.6°
Reaches altitude 10° 02:08:33 10° 30° (NNE) 2,367 6.4 -17.4°
Maximum altitude 02:13:19 35° 96° (E) 1,269 3.9 -17.0°
Enters shadow 02:18:03 10° 161° (SSE) 2,353 4.7 -16.6°
